Weather History for KITH - January, 2013

Change the Weather History Date:

Wednesday, January 16, 2013

  Actual Average Record
Temperature  
Mean Temperature 29 °F -  
Max Temperature 32 °F 28 °F 69 °F (1997)
Min Temperature 26 °F 11 °F -25 °F (1957)
Degree Days  
Heating Degree Days 36    
Moisture  
Dew Point 25 °F    
Average Humidity 86    
Maximum Humidity 93    
Minimum Humidity 69    
Precipitation  
Precipitation 0.03 in - - ()
Sea Level Pressure  
Sea Level Pressure 29.96 in    
Wind  
Wind Speed 5 mph (SSE)    
Max Wind Speed 10 mph    
Max Gust Speed -    
Visibility 7 miles    
Events Snow    
Averages and records for this station are not official NWS values.
T = Trace of Precipitation, MM = Missing Value Source: NWS Daily Summary

Daily Weather History Graph

Daily Weather History Graph

Search for Another Location

Airport or City:

Trip Planner

Search our weather history database for the weather conditions in past years. The results will help you decide how hot, cold, wet, or windy it might be!

Date:

Astronomy

Jan. 16, 2013 Rise Set
Actual Time 7:32 AM EST 4:59 PM EST
Civil Twilight 7:01 AM EST 5:30 PM EST
Nautical Twilight 6:26 AM EST 6:05 PM EST
Astronomical Twilight 5:52 AM EST 6:39 PM EST
Moon 9:59 AM EST (1/16) 10:57 PM EST (1/16)
Length of Visible Light 10h 29m
Length of Day
9h 27m
Waxing Crescent, 28% of the Moon is Illuminated
Jan 16
Waxing Crescent
Jan 18
First Quarter
Jan 26
Full
Feb 3
Last Quarter
Feb 10
New

Hourly Weather History & Observations

Time (EST) Temp. Windchill Dew Point Humidity Pressure Visibility Wind Dir Wind Speed Gust Speed Precip Events Conditions
12:56 AM 28.0 °F - 21.0 °F 75% 30.19 in 10.0 mi Calm Calm - N/A   Clear
1:56 AM 28.0 °F 22.8 °F 19.0 °F 69% 30.16 in 10.0 mi SE 4.6 mph - N/A   Overcast
2:56 AM 29.1 °F 23.0 °F 20.1 °F 69% 30.14 in 10.0 mi SE 5.8 mph - N/A   Overcast
3:56 AM 28.0 °F 18.6 °F 23.0 °F 81% 30.10 in 10.0 mi SSE 10.4 mph - 0.00 in Snow Light Snow
4:56 AM 27.1 °F 19.7 °F 24.1 °F 88% 30.07 in 10.0 mi SSE 6.9 mph - 0.00 in Snow Light Snow
5:30 AM 26.6 °F 21.2 °F 24.8 °F 93% 30.02 in 2.0 mi South 4.6 mph - 0.00 in Snow Light Snow
5:39 AM 26.6 °F 21.2 °F 24.8 °F 93% 30.01 in 3.0 mi SSE 4.6 mph - 0.00 in Snow Light Snow
5:56 AM 28.0 °F 24.2 °F 25.2 °F 89% 30.07 in 2.0 mi South 3.5 mph - 0.00 in Snow Light Snow
6:03 AM 26.6 °F 22.6 °F 24.8 °F 93% 30.02 in 1.8 mi SE 3.5 mph - 0.00 in Snow Light Snow
6:23 AM 26.6 °F - 24.8 °F 93% 30.01 in 2.0 mi Calm Calm - 0.00 in Snow Light Snow
6:56 AM 27.1 °F 18.9 °F 25.2 °F 92% 30.06 in 2.0 mi SSE 8.1 mph - 0.01 in Snow Light Snow
7:56 AM 28.0 °F 22.8 °F 25.2 °F 89% 30.02 in 3.0 mi SSE 4.6 mph - 0.00 in Snow Light Snow
8:56 AM 29.1 °F 22.1 °F 25.2 °F 85% 30.02 in 4.0 mi SSE 6.9 mph - 0.00 in Snow Light Snow
9:21 AM 28.4 °F 22.2 °F 26.6 °F 93% 29.97 in 1.5 mi SSE 5.8 mph - 0.00 in Snow Light Snow
9:56 AM 28.0 °F 21.7 °F 26.1 °F 92% 30.00 in 2.0 mi SE 5.8 mph - 0.00 in Snow Light Snow
10:56 AM 29.1 °F 23.0 °F 26.1 °F 88% 29.96 in 2.0 mi ESE 5.8 mph - 0.01 in Snow Light Snow
11:12 AM 28.4 °F 22.2 °F 26.6 °F 93% 29.90 in 4.0 mi SE 5.8 mph - 0.00 in Snow Light Snow
11:44 AM 28.4 °F 22.2 °F 26.6 °F 93% 29.87 in 6.0 mi SSE 5.8 mph - 0.00 in   Overcast
11:56 AM 29.1 °F 20.6 °F 26.1 °F 88% 29.88 in 6.0 mi SE 9.2 mph - 0.00 in   Overcast
12:56 PM 30.0 °F 23.2 °F 26.1 °F 85% 29.87 in 10.0 mi South 6.9 mph - 0.01 in   Overcast
1:56 PM 31.1 °F 24.5 °F 27.1 °F 85% 29.85 in 10.0 mi South 6.9 mph - 0.00 in   Overcast
2:56 PM 32.0 °F 25.6 °F 28.0 °F 85% 29.84 in 10.0 mi South 6.9 mph - 0.00 in Snow Light Snow Showers
3:23 PM 32.0 °F 25.6 °F 28.4 °F 87% 29.80 in 10.0 mi South 6.9 mph - 0.00 in   Mostly Cloudy
3:56 PM 32.0 °F 25.6 °F 28.0 °F 85% 29.84 in 10.0 mi South 6.9 mph - 0.00 in   Mostly Cloudy
4:56 PM 31.1 °F 25.4 °F 28.0 °F 88% 29.85 in 10.0 mi South 5.8 mph - N/A   Scattered Clouds
5:56 PM 30.0 °F 24.1 °F 27.1 °F 89% 29.86 in 10.0 mi South 5.8 mph - N/A   Clear
6:56 PM 31.1 °F 22.4 °F 27.1 °F 85% 29.87 in 10.0 mi South 10.4 mph - N/A   Clear
7:56 PM 31.1 °F 22.4 °F 27.1 °F 85% 29.88 in 10.0 mi South 10.4 mph - N/A   Clear
8:56 PM 31.1 °F 22.4 °F 26.1 °F 82% 29.89 in 10.0 mi SSW 10.4 mph - N/A   Clear
9:56 PM 31.1 °F 23.1 °F 26.1 °F 82% 29.89 in 10.0 mi SSW 9.2 mph - N/A   Mostly Cloudy
10:56 PM 31.1 °F 23.1 °F 24.1 °F 75% 29.88 in 10.0 mi SW 9.2 mph - N/A   Overcast
11:56 PM 32.0 °F 24.8 °F 25.2 °F 76% 29.90 in 10.0 mi SW 8.1 mph - N/A   Overcast